Flag for Benin Weather past 2 weeks in Cotonou, Benin

Now
84 °F

Passing clouds.


Feels Like: 94 °F
Forecast: 82 / 88 °F
Wind: 13 mph from Southwest

Location: Cotonou Airport

Current Time: Mar 26, 2015 at 8:12:45 PM

Latest Report: Mar 26, 2015 at 7:00 PM


Visibility: N/A

Pressure: 29.80 "Hg

Humidity: 79%

Dew point: 77 °F

Location of CotonouLocation

Historic Weather in Cotonou — Graph

°F

Cotonou temperature yesterday

Maximum temperature yesterday: 84 °F (at 12:00 AM)
Minimum temperature yesterday: 75 °F (at 10:00 AM)
Average temperature yesterday: 81 °F

Past Weeks' High & Low Weather Summary

 TemperatureHumidityPressure
High91 °F (Mar 20, 2:00 PM)100% (Mar 22, 6:00 PM)29.92 "Hg (Mar 22, 6:00 PM)
Low73 °F (Mar 21, 9:00 PM)59% (Mar 18, 1:00 PM)29.65 "Hg (Mar 14, 5:00 PM)
Average84 °F80%29.76 "Hg
* Reported Mar 11 7:00 PM — Mar 26 7:00 PM, Cotonou, Weather by CustomWeather, © 2015

Note: Actual official high and low records may vary slightly from our data, if they occured in-between our weather recording intervals... More about our weather records

Advertising

Cotonou weather history for previous 24 hours

 ConditionsComfort  
Time TempWeatherWind HumidityBarometerVisibility
7:00 PM
Thu, Mar 26
84 °FPassing clouds.13 mph79%29.80 "HgN/A
6:00 PM86 °FPassing clouds.13 mph75%29.80 "HgN/A
5:00 PM86 °FPassing clouds.12 mph70%29.77 "HgN/A
4:00 PM88 °FScattered clouds.13 mph70%29.80 "HgN/A
3:00 PM86 °FBroken clouds.9 mph75%29.80 "HgN/A
2:00 PM88 °FScattered clouds.9 mph70%29.83 "HgN/A
1:00 PM86 °FScattered clouds.6 mph75%29.86 "HgN/A
12:00 PM86 °FScattered clouds.6 mph75%29.89 "HgN/A
11:00 AM86 °FScattered clouds.1 mph75%29.92 "HgN/A
10:00 AM84 °FScattered clouds.5 mph79%29.92 "HgN/A
9:00 AM81 °FScattered clouds.5 mph84%29.89 "Hg5 mi
8:00 AM79 °FScattered clouds.5 mph89%29.86 "Hg4 mi
7:00 AM79 °FBroken clouds.3 mph89%29.86 "Hg5 mi
6:00 AM79 °FLight rain. Passing clouds.2 mph89%29.83 "Hg5 mi
5:00 AM79 °FLight rain. Passing clouds.No wind89%29.80 "Hg5 mi
4:00 AM79 °FPassing clouds.1 mph89%29.80 "Hg5 mi
3:00 AM81 °FPassing clouds.No wind84%29.83 "HgN/A
2:00 AM81 °FPassing clouds.5 mph84%29.83 "HgN/A
1:00 AM81 °FPassing clouds.9 mph84%29.83 "HgN/A
12:00 AM81 °FPassing clouds.7 mph79%29.83 "HgN/A
11:00 PM
Wed, Mar 25
81 °FPassing clouds.3 mph79%29.86 "HgN/A
10:00 PM81 °FPassing clouds.3 mph79%29.83 "HgN/A
9:00 PM79 °FPassing clouds.No wind84%29.80 "HgN/A
Weather by CustomWeather, © 2015

See weather overviewHow to use our weather pages